Year,Month,Day,Hour,Minute,Value (Times are PST for insolation in W/m^2)
2011,06,15,00,00,0.00
2011,06,15,00,01,0.00
2011,06,15,00,02,0.00
2011,06,15,00,03,0.00
2011,06,15,00,04,0.00
2011,06,15,00,05,0.00
2011,06,15,00,06,0.00
2011,06,15,00,07,0.00
2011,06,15,00,08,0.00
2011,06,15,00,09,0.00
2011,06,15,00,10,0.00
2011,06,15,00,11,0.00
2011,06,15,00,12,0.00
2011,06,15,00,13,0.00
2011,06,15,00,14,0.00
2011,06,15,00,15,0.00
2011,06,15,00,16,0.00
2011,06,15,00,17,0.00
2011,06,15,00,18,0.00
2011,06,15,00,19,0.00
2011,06,15,00,20,0.00
2011,06,15,00,21,0.00
2011,06,15,00,22,0.00
2011,06,15,00,23,0.00
2011,06,15,00,24,0.00
2011,06,15,00,25,0.00
2011,06,15,00,26,0.00
2011,06,15,00,27,0.00
2011,06,15,00,28,0.00
2011,06,15,00,29,0.00
2011,06,15,00,30,0.00
2011,06,15,00,31,0.00
2011,06,15,00,32,0.00
2011,06,15,00,33,0.00
2011,06,15,00,34,0.00
2011,06,15,00,35,0.00
2011,06,15,00,36,0.00
2011,06,15,00,37,0.00
2011,06,15,00,38,0.00
2011,06,15,00,39,0.00
2011,06,15,00,40,0.00
2011,06,15,00,41,0.00
2011,06,15,00,42,0.00
2011,06,15,00,43,0.00
2011,06,15,00,44,0.00
2011,06,15,00,45,0.00
2011,06,15,00,46,0.00
2011,06,15,00,47,0.00
2011,06,15,00,48,0.00
2011,06,15,00,49,0.00
2011,06,15,00,50,0.00
2011,06,15,00,51,0.00
2011,06,15,00,52,0.00
2011,06,15,00,53,0.00
2011,06,15,00,54,0.00
2011,06,15,00,55,0.00
2011,06,15,00,56,0.00
2011,06,15,00,57,0.00
2011,06,15,00,58,0.00
2011,06,15,00,59,0.00
2011,06,15,01,00,0.00
2011,06,15,01,01,0.00
2011,06,15,01,02,0.00
2011,06,15,01,03,0.00
2011,06,15,01,04,0.00
2011,06,15,01,05,0.00
2011,06,15,01,06,0.00
2011,06,15,01,07,0.00
2011,06,15,01,08,0.00
2011,06,15,01,09,0.00
2011,06,15,01,10,0.00
2011,06,15,01,11,0.00
2011,06,15,01,12,0.00
2011,06,15,01,13,0.00
2011,06,15,01,14,0.00
2011,06,15,01,15,0.00
2011,06,15,01,16,0.00
2011,06,15,01,17,0.00
2011,06,15,01,18,0.00
2011,06,15,01,19,0.00
2011,06,15,01,20,0.00
2011,06,15,01,21,0.00
2011,06,15,01,22,0.00
2011,06,15,01,23,0.00
2011,06,15,01,24,0.00
2011,06,15,01,25,0.00
2011,06,15,01,26,0.00
2011,06,15,01,27,0.00
2011,06,15,01,28,0.00
2011,06,15,01,29,0.00
2011,06,15,01,30,0.00
2011,06,15,01,31,0.00
2011,06,15,01,32,0.00
2011,06,15,01,33,0.00
2011,06,15,01,34,0.00
2011,06,15,01,35,0.00
2011,06,15,01,36,0.00
2011,06,15,01,37,0.00
2011,06,15,01,38,0.00
2011,06,15,01,39,0.00
2011,06,15,01,40,0.00
2011,06,15,01,41,0.00
2011,06,15,01,42,0.00
2011,06,15,01,43,0.00
2011,06,15,01,44,0.00
2011,06,15,01,45,0.00
2011,06,15,01,46,0.00
2011,06,15,01,47,0.00
2011,06,15,01,48,0.00
2011,06,15,01,49,0.00
2011,06,15,01,50,0.00
2011,06,15,01,51,0.00
2011,06,15,01,52,0.00
2011,06,15,01,53,0.00
2011,06,15,01,54,0.00
2011,06,15,01,55,0.00
2011,06,15,01,56,0.00
2011,06,15,01,57,0.00
2011,06,15,01,58,0.00
2011,06,15,01,59,0.00
2011,06,15,02,00,0.00
2011,06,15,02,01,0.00
2011,06,15,02,02,0.00
2011,06,15,02,03,0.00
2011,06,15,02,04,0.00
2011,06,15,02,05,0.00
2011,06,15,02,06,0.00
2011,06,15,02,07,0.00
2011,06,15,02,08,0.00
2011,06,15,02,09,0.00
2011,06,15,02,10,0.00
2011,06,15,02,11,0.00
2011,06,15,02,12,0.00
2011,06,15,02,13,0.00
2011,06,15,02,14,0.00
2011,06,15,02,15,0.00
2011,06,15,02,16,0.00
2011,06,15,02,17,0.00
2011,06,15,02,18,0.00
2011,06,15,02,19,0.00
2011,06,15,02,20,0.00
2011,06,15,02,21,0.00
2011,06,15,02,22,0.00
2011,06,15,02,23,0.00
2011,06,15,02,24,0.00
2011,06,15,02,25,0.00
2011,06,15,02,26,0.00
2011,06,15,02,27,0.00
2011,06,15,02,28,0.00
2011,06,15,02,29,0.00
2011,06,15,02,30,0.00
2011,06,15,02,31,0.00
2011,06,15,02,32,0.00
2011,06,15,02,33,0.00
2011,06,15,02,34,0.00
2011,06,15,02,35,0.00
2011,06,15,02,36,0.00
2011,06,15,02,37,0.00
2011,06,15,02,38,0.00
2011,06,15,02,39,0.00
2011,06,15,02,40,0.00
2011,06,15,02,41,0.00
2011,06,15,02,42,0.00
2011,06,15,02,43,0.00
2011,06,15,02,44,0.00
2011,06,15,02,45,0.00
2011,06,15,02,46,0.00
2011,06,15,02,47,0.00
2011,06,15,02,48,0.00
2011,06,15,02,49,0.00
2011,06,15,02,50,0.00
2011,06,15,02,51,0.00
2011,06,15,02,52,0.00
2011,06,15,02,53,0.00
2011,06,15,02,54,0.00
2011,06,15,02,55,0.00
2011,06,15,02,56,0.00
2011,06,15,02,57,0.00
2011,06,15,02,58,0.00
2011,06,15,02,59,0.00
2011,06,15,03,00,0.00
2011,06,15,03,01,0.00
2011,06,15,03,02,0.00
2011,06,15,03,03,0.00
2011,06,15,03,04,0.00
2011,06,15,03,05,0.00
2011,06,15,03,06,0.00
2011,06,15,03,07,0.00
2011,06,15,03,08,0.00
2011,06,15,03,09,0.00
2011,06,15,03,10,0.00
2011,06,15,03,11,0.00
2011,06,15,03,12,0.00
2011,06,15,03,13,0.00
2011,06,15,03,14,0.00
2011,06,15,03,15,0.00
2011,06,15,03,16,0.00
2011,06,15,03,17,0.00
2011,06,15,03,18,0.00
2011,06,15,03,19,0.00
2011,06,15,03,20,0.00
2011,06,15,03,21,0.00
2011,06,15,03,22,0.00
2011,06,15,03,23,0.00
2011,06,15,03,24,0.00
2011,06,15,03,25,0.00
2011,06,15,03,26,0.00
2011,06,15,03,27,0.00
2011,06,15,03,28,0.00
2011,06,15,03,29,0.00
2011,06,15,03,30,0.00
2011,06,15,03,31,0.00
2011,06,15,03,32,0.00
2011,06,15,03,33,0.00
2011,06,15,03,34,0.00
2011,06,15,03,35,0.00
2011,06,15,03,36,0.00
2011,06,15,03,37,0.00
2011,06,15,03,38,0.00
2011,06,15,03,39,0.00
2011,06,15,03,40,0.00
2011,06,15,03,41,0.00
2011,06,15,03,42,0.00
2011,06,15,03,43,0.00
2011,06,15,03,44,0.00
2011,06,15,03,45,0.00
2011,06,15,03,46,0.00
2011,06,15,03,47,0.00
2011,06,15,03,48,0.00
2011,06,15,03,49,0.00
2011,06,15,03,50,0.00
2011,06,15,03,51,0.00
2011,06,15,03,52,0.00
2011,06,15,03,53,0.00
2011,06,15,03,54,0.00
2011,06,15,03,55,0.00
2011,06,15,03,56,0.00
2011,06,15,03,57,0.00
2011,06,15,03,58,0.00
2011,06,15,03,59,0.00
2011,06,15,04,00,0.00
2011,06,15,04,01,0.00
2011,06,15,04,02,0.00
2011,06,15,04,03,0.00
2011,06,15,04,04,0.00
2011,06,15,04,05,0.00
2011,06,15,04,06,0.00
2011,06,15,04,07,0.00
2011,06,15,04,08,0.00
2011,06,15,04,09,0.00
2011,06,15,04,10,0.00
2011,06,15,04,11,0.00
2011,06,15,04,12,0.00
2011,06,15,04,13,0.00
2011,06,15,04,14,0.00
2011,06,15,04,15,0.00
2011,06,15,04,16,0.00
2011,06,15,04,17,0.00
2011,06,15,04,18,0.00
2011,06,15,04,19,0.00
2011,06,15,04,20,0.00
2011,06,15,04,21,0.00
2011,06,15,04,22,0.00
2011,06,15,04,23,0.00
2011,06,15,04,24,0.00
2011,06,15,04,25,0.00
2011,06,15,04,26,0.00
2011,06,15,04,27,0.00
2011,06,15,04,28,0.00
2011,06,15,04,29,0.00
2011,06,15,04,30,0.00
2011,06,15,04,31,0.00
2011,06,15,04,32,0.00
2011,06,15,04,33,0.00
2011,06,15,04,34,0.00
2011,06,15,04,35,0.00
2011,06,15,04,36,0.00
2011,06,15,04,37,0.00
2011,06,15,04,38,0.00
2011,06,15,04,39,0.00
2011,06,15,04,40,0.00
2011,06,15,04,41,0.00
2011,06,15,04,42,0.00
2011,06,15,04,43,0.00
2011,06,15,04,44,0.00
2011,06,15,04,45,0.00
2011,06,15,04,46,0.00
2011,06,15,04,47,0.00
2011,06,15,04,48,0.00
2011,06,15,04,49,0.00
2011,06,15,04,50,0.00
2011,06,15,04,51,0.00
2011,06,15,04,52,0.00
2011,06,15,04,53,0.00
2011,06,15,04,54,0.00
2011,06,15,04,55,0.00
2011,06,15,04,56,0.00
2011,06,15,04,57,0.00
2011,06,15,04,58,0.00
2011,06,15,04,59,0.00
2011,06,15,05,00,0.00
2011,06,15,05,01,0.00
2011,06,15,05,02,0.00
2011,06,15,05,03,0.00
2011,06,15,05,04,0.00
2011,06,15,05,05,0.00
2011,06,15,05,06,0.00
2011,06,15,05,07,0.00
2011,06,15,05,08,0.00
2011,06,15,05,09,0.00
2011,06,15,05,10,0.00
2011,06,15,05,11,0.00
2011,06,15,05,12,0.00
2011,06,15,05,13,0.00
2011,06,15,05,14,0.00
2011,06,15,05,15,0.00
2011,06,15,05,16,0.00
2011,06,15,05,17,0.00
2011,06,15,05,18,3.80
2011,06,15,05,19,5.00
2011,06,15,05,20,5.00
2011,06,15,05,21,5.00
2011,06,15,05,22,5.00
2011,06,15,05,23,5.80
2011,06,15,05,24,7.00
2011,06,15,05,25,7.00
2011,06,15,05,26,7.00
2011,06,15,05,27,7.00
2011,06,15,05,28,7.10
2011,06,15,05,29,9.00
2011,06,15,05,30,9.00
2011,06,15,05,31,9.00
2011,06,15,05,32,9.90
2011,06,15,05,33,11.00
2011,06,15,05,34,11.00
2011,06,15,05,35,11.80
2011,06,15,05,36,12.00
2011,06,15,05,37,13.90
2011,06,15,05,38,14.00
2011,06,15,05,39,14.60
2011,06,15,05,40,16.00
2011,06,15,05,41,16.00
2011,06,15,05,42,16.00
2011,06,15,05,43,17.40
2011,06,15,05,44,18.00
2011,06,15,05,45,18.00
2011,06,15,05,46,19.20
2011,06,15,05,47,21.00
2011,06,15,05,48,21.70
2011,06,15,05,49,23.90
2011,06,15,05,50,23.90
2011,06,15,05,51,23.00
2011,06,15,05,52,23.00
2011,06,15,05,53,23.00
2011,06,15,05,54,23.10
2011,06,15,05,55,25.00
2011,06,15,05,56,25.30
2011,06,15,05,57,26.00
2011,06,15,05,58,27.00
2011,06,15,05,59,28.00
2011,06,15,06,00,29.30
2011,06,15,06,01,31.60
2011,06,15,06,02,32.90
2011,06,15,06,03,35.10
2011,06,15,06,04,37.40
2011,06,15,06,05,39.30
2011,06,15,06,06,40.80
2011,06,15,06,07,43.10
2011,06,15,06,08,45.20
2011,06,15,06,09,46.00
2011,06,15,06,10,44.30
2011,06,15,06,11,44.00
2011,06,15,06,12,43.70
2011,06,15,06,13,42.00
2011,06,15,06,14,42.00
2011,06,15,06,15,42.90
2011,06,15,06,16,45.20
2011,06,15,06,17,46.70
2011,06,15,06,18,48.50
2011,06,15,06,19,49.00
2011,06,15,06,20,49.20
2011,06,15,06,21,51.40
2011,06,15,06,22,54.20
2011,06,15,06,23,59.40
2011,06,15,06,24,63.50
2011,06,15,06,25,66.20
2011,06,15,06,26,68.30
2011,06,15,06,27,69.80
2011,06,15,06,28,70.00
2011,06,15,06,29,70.00
2011,06,15,06,30,69.80
2011,06,15,06,31,69.00
2011,06,15,06,32,69.00
2011,06,15,06,33,69.50
2011,06,15,06,34,71.30
2011,06,15,06,35,73.40
2011,06,15,06,36,75.60
2011,06,15,06,37,79.10
2011,06,15,06,38,83.40
2011,06,15,06,39,86.50
2011,06,15,06,40,88.70
2011,06,15,06,41,91.30
2011,06,15,06,42,93.00
2011,06,15,06,43,94.40
2011,06,15,06,44,96.50
2011,06,15,06,45,97.90
2011,06,15,06,46,100.10
2011,06,15,06,47,102.40
2011,06,15,06,48,104.00
2011,06,15,06,49,102.40
2011,06,15,06,50,98.40
2011,06,15,06,51,94.60
2011,06,15,06,52,90.90
2011,06,15,06,53,88.40
2011,06,15,06,54,84.40
2011,06,15,06,55,83.80
2011,06,15,06,56,83.00
2011,06,15,06,57,83.00
2011,06,15,06,58,83.00
2011,06,15,06,59,83.60
2011,06,15,07,00,86.70
2011,06,15,07,01,93.20
2011,06,15,07,02,100.90
2011,06,15,07,03,109.10
2011,06,15,07,04,119.10
2011,06,15,07,05,126.20
2011,06,15,07,06,131.40
2011,06,15,07,07,134.50
2011,06,15,07,08,136.20
2011,06,15,07,09,138.40
2011,06,15,07,10,143.20
2011,06,15,07,11,152.10
2011,06,15,07,12,159.80
2011,06,15,07,13,157.50
2011,06,15,07,14,152.20
2011,06,15,07,15,140.90
2011,06,15,07,16,134.20
2011,06,15,07,17,130.80
2011,06,15,07,18,130.00
2011,06,15,07,19,128.40
2011,06,15,07,20,128.10
2011,06,15,07,21,130.60
2011,06,15,07,22,134.00
2011,06,15,07,23,134.40
2011,06,15,07,24,136.00
2011,06,15,07,25,137.00
2011,06,15,07,26,139.70
2011,06,15,07,27,143.20
2011,06,15,07,28,142.30
2011,06,15,07,29,144.20
2011,06,15,07,30,146.40
2011,06,15,07,31,148.90
2011,06,15,07,32,151.00
2011,06,15,07,33,152.80
2011,06,15,07,34,158.00
2011,06,15,07,35,163.50
2011,06,15,07,36,173.90
2011,06,15,07,37,215.80
2011,06,15,07,38,220.00
2011,06,15,07,39,218.20
2011,06,15,07,40,211.60
2011,06,15,07,41,210.80
2011,06,15,07,42,221.00
2011,06,15,07,43,270.50
2011,06,15,07,44,244.50
2011,06,15,07,45,239.70
2011,06,15,07,46,219.10
2011,06,15,07,47,207.30
2011,06,15,07,48,159.60
2011,06,15,07,49,150.60
2011,06,15,07,50,144.00
2011,06,15,07,51,141.40
2011,06,15,07,52,143.10
2011,06,15,07,53,148.00
2011,06,15,07,54,158.90
2011,06,15,07,55,160.70
2011,06,15,07,56,167.00
2011,06,15,07,57,163.20
2011,06,15,07,58,149.40
2011,06,15,07,59,138.10
2011,06,15,08,00,129.80
2011,06,15,08,01,124.00
2011,06,15,08,02,120.40
2011,06,15,08,03,118.10
2011,06,15,08,04,117.70
2011,06,15,08,05,115.50
2011,06,15,08,06,113.60
2011,06,15,08,07,113.00
2011,06,15,08,08,116.80
2011,06,15,08,09,129.80
2011,06,15,08,10,135.00
2011,06,15,08,11,175.80
2011,06,15,08,12,213.10
2011,06,15,08,13,164.40
2011,06,15,08,14,153.50
2011,06,15,08,15,185.00
2011,06,15,08,16,186.60
2011,06,15,08,17,165.00
2011,06,15,08,18,165.00
2011,06,15,08,19,353.80
2011,06,15,08,20,363.20
2011,06,15,08,21,445.70
2011,06,15,08,22,430.80
2011,06,15,08,23,414.30
2011,06,15,08,24,458.90
2011,06,15,08,25,417.40
2011,06,15,08,26,376.00
2011,06,15,08,27,376.00
2011,06,15,08,28,376.00
2011,06,15,08,29,513.20
2011,06,15,08,30,512.60
2011,06,15,08,31,429.10
2011,06,15,08,32,390.00
2011,06,15,08,33,477.00
2011,06,15,08,34,502.10
2011,06,15,08,35,464.00
2011,06,15,08,36,371.20
2011,06,15,08,37,360.70
2011,06,15,08,38,454.00
2011,06,15,08,39,414.50
2011,06,15,08,40,299.70
2011,06,15,08,41,293.50
2011,06,15,08,42,260.50
2011,06,15,08,43,278.00
2011,06,15,08,44,278.00
2011,06,15,08,45,278.00
2011,06,15,08,46,521.00
2011,06,15,08,47,528.20
2011,06,15,08,48,523.00
2011,06,15,08,49,519.00
2011,06,15,08,50,518.30
2011,06,15,08,51,527.20
2011,06,15,08,52,535.00
2011,06,15,08,53,528.00
2011,06,15,08,54,540.50
2011,06,15,08,55,528.10
2011,06,15,08,56,538.00
2011,06,15,08,57,541.20
2011,06,15,08,58,546.00
2011,06,15,08,59,545.00
2011,06,15,09,00,551.40
2011,06,15,09,01,554.00
2011,06,15,09,02,554.80
2011,06,15,09,03,571.20
2011,06,15,09,04,506.00
2011,06,15,09,05,506.00
2011,06,15,09,06,506.00
2011,06,15,09,07,506.00
2011,06,15,09,08,374.50
2011,06,15,09,09,267.00
2011,06,15,09,10,516.00
2011,06,15,09,11,599.00
2011,06,15,09,12,349.10
2011,06,15,09,13,392.70
2011,06,15,09,14,713.00
2011,06,15,09,15,710.00
2011,06,15,09,16,710.00
2011,06,15,09,17,731.00
2011,06,15,09,18,689.70
2011,06,15,09,19,666.00
2011,06,15,09,20,666.00
2011,06,15,09,21,594.00
2011,06,15,09,22,612.00
2011,06,15,09,23,691.80
2011,06,15,09,24,703.20
2011,06,15,09,25,644.60
2011,06,15,09,26,644.70
2011,06,15,09,27,672.80
2011,06,15,09,28,675.00
2011,06,15,09,29,675.00
2011,06,15,09,30,675.00
2011,06,15,09,31,546.80
2011,06,15,09,32,162.00
2011,06,15,09,33,396.90
2011,06,15,09,34,684.00
2011,06,15,09,35,456.80
2011,06,15,09,36,352.00
2011,06,15,09,37,352.00
2011,06,15,09,38,649.20
2011,06,15,09,39,642.00
2011,06,15,09,40,642.30
2011,06,15,09,41,644.70
2011,06,15,09,42,647.00
2011,06,15,09,43,641.60
2011,06,15,09,44,638.00
2011,06,15,09,45,638.00
2011,06,15,09,46,639.90
2011,06,15,09,47,640.40
2011,06,15,09,48,643.80
2011,06,15,09,49,647.00
2011,06,15,09,50,647.90
2011,06,15,09,51,650.70
2011,06,15,09,52,652.00
2011,06,15,09,53,655.80
2011,06,15,09,54,658.70
2011,06,15,09,55,665.70
2011,06,15,09,56,666.80
2011,06,15,09,57,670.20
2011,06,15,09,58,671.70
2011,06,15,09,59,673.00
2011,06,15,10,00,675.20
2011,06,15,10,01,680.40
2011,06,15,10,02,680.40
2011,06,15,10,03,683.60
2011,06,15,10,04,686.10
2011,06,15,10,05,687.80
2011,06,15,10,06,690.30
2011,06,15,10,07,689.90
2011,06,15,10,08,691.00
2011,06,15,10,09,694.30
2011,06,15,10,10,696.00
2011,06,15,10,11,699.40
2011,06,15,10,12,701.00
2011,06,15,10,13,703.30
2011,06,15,10,14,705.50
2011,06,15,10,15,707.30
2011,06,15,10,16,709.80
2011,06,15,10,17,712.00
2011,06,15,10,18,713.40
2011,06,15,10,19,714.80
2011,06,15,10,20,716.70
2011,06,15,10,21,719.00
2011,06,15,10,22,721.00
2011,06,15,10,23,721.00
2011,06,15,10,24,723.80
2011,06,15,10,25,728.50
2011,06,15,10,26,731.40
2011,06,15,10,27,731.60
2011,06,15,10,28,732.60
2011,06,15,10,29,736.60
2011,06,15,10,30,740.30
2011,06,15,10,31,741.20
2011,06,15,10,32,740.10
2011,06,15,10,33,745.30
2011,06,15,10,34,749.20
2011,06,15,10,35,751.00
2011,06,15,10,36,753.40
2011,06,15,10,37,752.30
2011,06,15,10,38,754.10
2011,06,15,10,39,757.00
2011,06,15,10,40,761.00
2011,06,15,10,41,762.80
2011,06,15,10,42,767.00
2011,06,15,10,43,768.00
2011,06,15,10,44,769.40
2011,06,15,10,45,770.00
2011,06,15,10,46,770.00
2011,06,15,10,47,773.40
2011,06,15,10,48,777.50
2011,06,15,10,49,780.00
2011,06,15,10,50,780.80
2011,06,15,10,51,779.50
2011,06,15,10,52,783.60
2011,06,15,10,53,784.50
2011,06,15,10,54,784.00
2011,06,15,10,55,786.00
2011,06,15,10,56,788.20
2011,06,15,10,57,788.80
2011,06,15,10,58,788.30
2011,06,15,10,59,790.90
2011,06,15,11,00,791.90
2011,06,15,11,01,793.70
2011,06,15,11,02,795.80
2011,06,15,11,03,797.70
2011,06,15,11,04,800.20
2011,06,15,11,05,802.20
2011,06,15,11,06,803.60
2011,06,15,11,07,805.80
2011,06,15,11,08,807.00
2011,06,15,11,09,808.90
2011,06,15,11,10,812.90
2011,06,15,11,11,815.60
2011,06,15,11,12,816.90
2011,06,15,11,13,816.90
2011,06,15,11,14,816.00
2011,06,15,11,15,816.40
2011,06,15,11,16,817.00
2011,06,15,11,17,819.20
2011,06,15,11,18,823.00
2011,06,15,11,19,824.00
2011,06,15,11,20,825.80
2011,06,15,11,21,826.10
2011,06,15,11,22,828.30
2011,06,15,11,23,829.40
2011,06,15,11,24,828.80
2011,06,15,11,25,829.00
2011,06,15,11,26,829.70
2011,06,15,11,27,831.00
2011,06,15,11,28,830.20
2011,06,15,11,29,830.00
2011,06,15,11,30,832.80
2011,06,15,11,31,832.70
2011,06,15,11,32,838.00
2011,06,15,11,33,838.00
2011,06,15,11,34,840.20
2011,06,15,11,35,843.30
2011,06,15,11,36,845.50
2011,06,15,11,37,846.90
2011,06,15,11,38,852.80
2011,06,15,11,39,854.00
2011,06,15,11,40,855.60
2011,06,15,11,41,861.80
2011,06,15,11,42,865.00
2011,06,15,11,43,868.80
2011,06,15,11,44,875.30
2011,06,15,11,45,881.00
2011,06,15,11,46,883.80
2011,06,15,11,47,886.60
2011,06,15,11,48,894.00
2011,06,15,11,49,899.80
2011,06,15,11,50,906.00
2011,06,15,11,51,911.50
2011,06,15,11,52,917.00
2011,06,15,11,53,924.00
2011,06,15,11,54,927.60
2011,06,15,11,55,936.70
2011,06,15,11,56,939.30
2011,06,15,11,57,943.00
2011,06,15,11,58,950.90
2011,06,15,11,59,965.40
2011,06,15,12,00,977.00
2011,06,15,12,01,983.00
2011,06,15,12,02,989.20
2011,06,15,12,03,988.50
2011,06,15,12,04,986.00
2011,06,15,12,05,984.80
2011,06,15,12,06,989.30
2011,06,15,12,07,994.90
2011,06,15,12,08,997.50
2011,06,15,12,09,997.00
2011,06,15,12,10,1004.00
2011,06,15,12,11,1016.90
2011,06,15,12,12,1035.30
2011,06,15,12,13,1067.20
2011,06,15,12,14,1091.60
2011,06,15,12,15,1122.10
2011,06,15,12,16,1146.00
2011,06,15,12,17,1162.50
2011,06,15,12,18,1174.20
2011,06,15,12,19,1180.10
2011,06,15,12,20,1186.90
2011,06,15,12,21,1188.00
2011,06,15,12,22,1188.00
2011,06,15,12,23,1040.10
2011,06,15,12,24,624.20
2011,06,15,12,25,621.00
2011,06,15,12,26,852.00
2011,06,15,12,27,1036.10
2011,06,15,12,28,1034.00
2011,06,15,12,29,939.70
2011,06,15,12,30,912.30
2011,06,15,12,31,937.20
2011,06,15,12,32,946.10
2011,06,15,12,33,974.20
2011,06,15,12,34,932.50
2011,06,15,12,35,958.00
2011,06,15,12,36,984.00
2011,06,15,12,37,1065.60
2011,06,15,12,38,1106.20
2011,06,15,12,39,1127.20
2011,06,15,12,40,1098.80
2011,06,15,12,41,1048.30
2011,06,15,12,42,1018.80
2011,06,15,12,43,1013.00
2011,06,15,12,44,971.40
2011,06,15,12,45,1001.60
2011,06,15,12,46,1065.70
2011,06,15,12,47,1096.20
2011,06,15,12,48,1122.80
2011,06,15,12,49,1120.70
2011,06,15,12,50,1106.00
2011,06,15,12,51,1150.90
2011,06,15,12,52,1128.50
2011,06,15,12,53,1110.70
2011,06,15,12,54,1146.50
2011,06,15,12,55,1116.30
2011,06,15,12,56,341.40
2011,06,15,12,57,327.40
2011,06,15,12,58,329.30
2011,06,15,12,59,333.60
2011,06,15,13,00,339.00
2011,06,15,13,01,339.00
2011,06,15,13,02,933.60
2011,06,15,13,03,1157.90
2011,06,15,13,04,1166.00
2011,06,15,13,05,1151.90
2011,06,15,13,06,1153.10
2011,06,15,13,07,1173.90
2011,06,15,13,08,1161.00
2011,06,15,13,09,1159.90
2011,06,15,13,10,1184.80
2011,06,15,13,11,1208.20
2011,06,15,13,12,1232.80
2011,06,15,13,13,1236.00
2011,06,15,13,14,1236.00
2011,06,15,13,15,1223.40
2011,06,15,13,16,1207.20
2011,06,15,13,17,1223.50
2011,06,15,13,18,1218.80
2011,06,15,13,19,1218.00
2011,06,15,13,20,1218.00
2011,06,15,13,21,1218.00
2011,06,15,13,22,733.00
2011,06,15,13,23,733.00
2011,06,15,13,24,704.00
2011,06,15,13,25,676.10
2011,06,15,13,26,712.00
2011,06,15,13,27,858.20
2011,06,15,13,28,937.00
2011,06,15,13,29,937.00
2011,06,15,13,30,894.60
2011,06,15,13,31,513.80
2011,06,15,13,32,539.20
2011,06,15,13,33,642.20
2011,06,15,13,34,708.60
2011,06,15,13,35,736.20
2011,06,15,13,36,752.00
2011,06,15,13,37,967.20
2011,06,15,13,38,1021.00
2011,06,15,13,39,707.00
2011,06,15,13,40,653.20
2011,06,15,13,41,451.30
2011,06,15,13,42,476.00
2011,06,15,13,43,486.50
2011,06,15,13,44,456.40
2011,06,15,13,45,423.60
2011,06,15,13,46,426.00
2011,06,15,13,47,457.00
2011,06,15,13,48,522.00
2011,06,15,13,49,558.50
2011,06,15,13,50,668.00
2011,06,15,13,51,668.00
2011,06,15,13,52,1035.60
2011,06,15,13,53,1303.00
2011,06,15,13,54,1069.00
2011,06,15,13,55,1024.20
2011,06,15,13,56,1030.00
2011,06,15,13,57,949.00
2011,06,15,13,58,504.40
2011,06,15,13,59,472.20
2011,06,15,14,00,472.00
2011,06,15,14,01,471.20
2011,06,15,14,02,472.90
2011,06,15,14,03,486.80
2011,06,15,14,04,514.20
2011,06,15,14,05,514.00
2011,06,15,14,06,530.20
2011,06,15,14,07,575.70
2011,06,15,14,08,644.70
2011,06,15,14,09,713.70
2011,06,15,14,10,732.20
2011,06,15,14,11,740.20
2011,06,15,14,12,766.30
2011,06,15,14,13,763.30
2011,06,15,14,14,823.60
2011,06,15,14,15,1183.80
2011,06,15,14,16,1229.80
2011,06,15,14,17,1222.00
2011,06,15,14,18,1132.00
2011,06,15,14,19,1072.00
2011,06,15,14,20,1072.00
2011,06,15,14,21,1072.00
2011,06,15,14,22,1072.00
2011,06,15,14,23,1072.00
2011,06,15,14,24,1072.00
2011,06,15,14,25,1017.50
2011,06,15,14,26,951.00
2011,06,15,14,27,754.70
2011,06,15,14,28,649.00
2011,06,15,14,29,481.50
2011,06,15,14,30,429.20
2011,06,15,14,31,407.10
2011,06,15,14,32,384.50
2011,06,15,14,33,415.50
2011,06,15,14,34,476.00
2011,06,15,14,35,476.00
2011,06,15,14,36,837.30
2011,06,15,14,37,1004.00
2011,06,15,14,38,1126.40
2011,06,15,14,39,1136.60
2011,06,15,14,40,1134.80
2011,06,15,14,41,1130.00
2011,06,15,14,42,1128.80
2011,06,15,14,43,1128.00
2011,06,15,14,44,1129.00
2011,06,15,14,45,984.80
2011,06,15,14,46,923.00
2011,06,15,14,47,923.00
2011,06,15,14,48,932.30
2011,06,15,14,49,1025.80
2011,06,15,14,50,1055.00
2011,06,15,14,51,1055.00
2011,06,15,14,52,1060.50
2011,06,15,14,53,1083.50
2011,06,15,14,54,1097.20
2011,06,15,14,55,1105.70
2011,06,15,14,56,1109.90
2011,06,15,14,57,1130.00
2011,06,15,14,58,1065.30
2011,06,15,14,59,884.00
2011,06,15,15,00,884.00
2011,06,15,15,01,884.00
2011,06,15,15,02,653.40
2011,06,15,15,03,517.00
2011,06,15,15,04,510.00
2011,06,15,15,05,510.00
2011,06,15,15,06,487.40
2011,06,15,15,07,397.00
2011,06,15,15,08,469.00
2011,06,15,15,09,577.00
2011,06,15,15,10,577.00
2011,06,15,15,11,577.00
2011,06,15,15,12,577.00
2011,06,15,15,13,1072.90
2011,06,15,15,14,1099.00
2011,06,15,15,15,1099.00
2011,06,15,15,16,1099.00
2011,06,15,15,17,955.00
2011,06,15,15,18,779.00
2011,06,15,15,19,779.00
2011,06,15,15,20,471.50
2011,06,15,15,21,352.90
2011,06,15,15,22,346.70
2011,06,15,15,23,355.80
2011,06,15,15,24,373.30
2011,06,15,15,25,388.00
2011,06,15,15,26,482.50
2011,06,15,15,27,577.00
2011,06,15,15,28,577.00
2011,06,15,15,29,881.80
2011,06,15,15,30,958.00
2011,06,15,15,31,880.70
2011,06,15,15,32,419.40
2011,06,15,15,33,409.80
2011,06,15,15,34,370.40
2011,06,15,15,35,367.60
2011,06,15,15,36,390.50
2011,06,15,15,37,411.60
2011,06,15,15,38,435.40
2011,06,15,15,39,438.70
2011,06,15,15,40,428.00
2011,06,15,15,41,380.50
2011,06,15,15,42,381.40
2011,06,15,15,43,394.00
2011,06,15,15,44,517.00
2011,06,15,15,45,655.00
2011,06,15,15,46,679.00
2011,06,15,15,47,643.90
2011,06,15,15,48,669.50
2011,06,15,15,49,935.00
2011,06,15,15,50,935.00
2011,06,15,15,51,935.00
2011,06,15,15,52,935.00
2011,06,15,15,53,935.00
2011,06,15,15,54,935.00
2011,06,15,15,55,935.00
2011,06,15,15,56,307.70
2011,06,15,15,57,292.00
2011,06,15,15,58,330.50
2011,06,15,15,59,362.00
2011,06,15,16,00,362.00
2011,06,15,16,01,362.00
2011,06,15,16,02,759.80
2011,06,15,16,03,967.10
2011,06,15,16,04,966.70
2011,06,15,16,05,969.70
2011,06,15,16,06,977.40
2011,06,15,16,07,986.00
2011,06,15,16,08,988.20
2011,06,15,16,09,967.50
2011,06,15,16,10,941.40
2011,06,15,16,11,919.40
2011,06,15,16,12,902.10
2011,06,15,16,13,894.00
2011,06,15,16,14,904.90
2011,06,15,16,15,886.80
2011,06,15,16,16,867.00
2011,06,15,16,17,867.20
2011,06,15,16,18,875.00
2011,06,15,16,19,877.70
2011,06,15,16,20,883.80
2011,06,15,16,21,896.30
2011,06,15,16,22,898.00
2011,06,15,16,23,808.40
2011,06,15,16,24,271.00
2011,06,15,16,25,271.00
2011,06,15,16,26,258.10
2011,06,15,16,27,247.40
2011,06,15,16,28,253.50
2011,06,15,16,29,251.80
2011,06,15,16,30,260.80
2011,06,15,16,31,276.30
2011,06,15,16,32,332.80
2011,06,15,16,33,404.00
2011,06,15,16,34,470.40
2011,06,15,16,35,570.00
2011,06,15,16,36,663.60
2011,06,15,16,37,726.00
2011,06,15,16,38,703.60
2011,06,15,16,39,691.20
2011,06,15,16,40,688.70
2011,06,15,16,41,685.80
2011,06,15,16,42,679.50
2011,06,15,16,43,674.10
2011,06,15,16,44,675.20
2011,06,15,16,45,680.20
2011,06,15,16,46,688.80
2011,06,15,16,47,691.00
2011,06,15,16,48,709.00
2011,06,15,16,49,710.00
2011,06,15,16,50,562.40
2011,06,15,16,51,223.60
2011,06,15,16,52,205.00
2011,06,15,16,53,167.60
2011,06,15,16,54,167.10
2011,06,15,16,55,178.60
2011,06,15,16,56,188.90
2011,06,15,16,57,185.20
2011,06,15,16,58,180.20
2011,06,15,16,59,178.00
2011,06,15,17,00,178.40
2011,06,15,17,01,181.20
2011,06,15,17,02,186.20
2011,06,15,17,03,196.20